AO-07 1 07530U 74089B 22166.90201396 -.00000045 00000-0 53586-5 0 9992 2 07530 101.9039 146.7671 0012599 46.0467 9.1654 12.53655355177274 UO-11 1 14781U 84021B 22166.83276283 .00000957 00000-0 12193-3 0 9992 2 14781 97.6171 154.3407 0007691 337.7799 22.3081 14.83675462 39808 LO-19 1 20442U 90005G 22166.84422952 .00000127 00000-0 63051-4 0 9998 2 20442 98.7937 131.6809 0011878 168.1097 192.0369 14.33063524692875 HUBBLE 1 20580U 90037B 22166.72259426 .00001958 00000-0 10487-3 0 9994 2 20580 28.4685 180.2715 0002576 22.0506 128.8465 15.10573416565956 MET-2/21 1 22782U 93055A 22166.99047531 .00000071 00000-0 50470-4 0 9996 2 22782 82.5495 15.4012 0022208 355.3087 113.3671 13.83856254453801 AO-27 1 22825U 93061C 22166.97541154 .00000096 00000-0 54799-4 0 9994 2 22825 98.8866 197.9820 0009409 60.2721 299.9395 14.30174829497940 IO-26 1 22826U 93061D 22166.99897669 .00000115 00000-0 61671-4 0 9991 2 22826 98.8809 197.8854 0009780 47.8752 312.3259 14.30520738498204 FO-29 1 24278U 96046B 22167.02753936 -.00000016 00000-0 22743-4 0 9991 2 24278 98.5158 190.9125 0349263 287.0725 69.2439 13.53115854275414 NOAA-15 1 25338U 98030A 22167.01668652 .00000211 00000-0 10654-3 0 9996 2 25338 98.6437 196.5712 0009309 305.7211 54.3103 14.26138713252811 GO-32 1 25397U 98043D 22166.60155554 .00000049 00000-0 41000-4 0 9990 2 25397 98.8178 117.0645 0002350 101.0542 259.0900 14.23757095243160 ISS 1 25544U 98067A 22166.98291539 .00007389 00000-0 13721-3 0 9997 2 25544 51.6447 342.5501 0004194 242.9750 255.0959 15.50021518344998 NO-44 1 26931U 01043C 22166.98394494 .00000137 00000-0 84136-4 0 9993 2 26931 67.0522 62.1912 0007644 263.7311 96.2920 14.30708165 81192 SO-50 1 27607U 02058C 22166.83085871 .00000692 00000-0 11562-3 0 9999 2 27607 64.5551 306.8667 0078332 294.7606 64.5360 14.76130437 48139 CO-55 1 27844U 03031E 22167.01971155 .00000273 00000-0 14186-3 0 9994 2 27844 98.6781 174.7280 0011107 104.4715 255.7696 14.22453636983665 CO-57 1 27848U 03031J 22166.98224681 .00000233 00000-0 12495-3 0 9995 2 27848 98.6826 175.2110 0010873 117.3207 242.9079 14.22010519983476 RS-22 1 27939U 03042A 22166.89761076 .00000630 00000-0 12033-3 0 9991 2 27939 98.1913 307.6184 0012352 207.6258 152.4295 14.67355491 817 NOAA-18 1 28654U 05018A 22167.00220616 .00000196 00000-0 12996-3 0 9990 2 28654 98.9491 237.4394 0013681 339.8472 20.2157 14.12742170879778 CO-58 1 28895U 05043F 22166.87887798 .00001093 00000-0 21556-3 0 9998 2 28895 98.1065 298.2814 0017557 143.0222 217.2194 14.64343573887184 Falconsat-3 1 30776U 07006E 22166.97501094 .00048156 00000-0 73518-3 0 9999 2 30776 35.4316 269.9628 0002278 77.9673 282.1314 15.53355418849357 CO-65 1 32785U 08021C 22166.95247897 .00002033 00000-0 21843-3 0 9993 2 32785 97.6570 137.8484 0011185 235.0360 124.9808 14.89587272766263 AAUSAT2 1 32788U 08021F 22166.70018821 .00005564 00000-0 48171-3 0 9997 2 32788 97.5323 152.0768 0012993 123.7675 236.4787 14.97459773768175 DO-64 1 32789U 08021G 22167.02850351 .00017501 00000-0 97146-3 0 9996 2 32789 97.3377 193.3781 0008948 338.9128 21.1733 15.13764419771713 CO-66 1 32791U 08021J 22166.83409541 .00003216 00000-0 31693-3 0 9991 2 32791 97.6111 143.2299 0012272 187.3358 172.7684 14.92661864767033 RS-30 1 32953U 08025A 22167.01047158 .00000021 00000-0 80971-4 0 9993 2 32953 82.5032 184.8327 0017921 263.0870 96.8181 12.43110871638157 PRISM 1 33493U 09002B 22167.01036685 .00005387 00000-0 43978-3 0 9997 2 33493 98.2271 153.5028 0015051 170.7911 189.3590 14.99795598728766 NOAA-19 1 33591U 09005A 22167.07413971 .00000185 00000-0 12503-3 0 9993 2 33591 99.1475 201.1822 0013817 187.7309 172.3651 14.12576913687992 SRMSAT 1 37841U 11058D 22166.93783662 .00000362 00000-0 53594-4 0 9990 2 37841 19.9718 264.0837 0011862 328.2541 189.2935 14.10756208551027 HRBE 1 37855U 11061F 22166.98272724 .00014536 00000-0 63389-3 0 9996 2 37855 101.7099 285.2795 0153289 66.9150 294.8142 15.12351552581015 RS-40 1 38735U 12041C 22166.72417656 .00000000 00000-0 -74076-4 0 9998 2 38735 82.4767 266.5670 0017326 18.8625 341.3093 12.42585774448300 ZACUBE-1 1 39417U 13066B 22166.88232571 .00002421 00000-0 30007-3 0 9995 2 39417 97.6362 138.4501 0059226 50.8360 309.8095 14.82332765462891 Delfi-N3xt 1 39428U 13066N 22166.82379889 .00002724 00000-0 42597-3 0 9998 2 39428 97.8148 101.2517 0115781 283.4422 75.3902 14.69184388458296 GOMX-1 1 39430U 13066Q 22166.94726177 .00001218 00000-0 22446-3 0 9998 2 39430 97.8109 74.2325 0150565 49.9926 311.4390 14.60175718456072 LO-74 1 39440U 13066AA 22166.82971022 .00001694 00000-0 23513-3 0 9991 2 39440 97.7261 124.4553 0079776 135.8555 224.9060 14.76997064461249 AO-73 1 39444U 13066AE 22166.83272980 .00003275 00000-0 39370-3 0 9998 2 39444 97.6238 140.8077 0057841 39.5717 320.9698 14.83414068461877 SPROUT 1 39770U 14029E 22167.03979079 .00004960 00000-0 50862-3 0 9997 2 39770 97.9422 283.9685 0010291 94.6316 265.6094 14.90868864437453 DTUSAT-2 1 40030U 14033W 22166.29566103 .00002282 00000-0 24258-3 0 9995 2 40030 97.9377 99.0539 0013205 64.0692 296.1884 14.89943763433321 EO-80 1 40032U 14033Y 22166.80510149 .00002391 00000-0 25406-3 0 9990 2 40032 97.9383 99.5787 0013185 63.4896 296.7671 14.89917892433892 HODOYOSHI-1 1 40299U 14070B 22167.02990720 .00004653 00000-0 17835-3 0 9998 2 40299 97.2434 235.1991 0013484 137.0583 306.5335 15.26908558422846 FIREBIRD FU3 1 40377U 15003B 22166.20798584 .00017884 00000-0 53465-3 0 9994 2 40377 99.1005 30.6186 0101307 33.6143 327.1464 15.29655353408073 FIREBIRD FU4 1 40378U 15003C 22166.88778654 .00023380 00000-0 69487-3 0 9994 2 40378 99.1008 31.6592 0101145 30.9754 329.7393 15.29779907408180 GRIFEX 1 40379U 15003D 22167.00717248 .00016782 00000-0 58991-3 0 9998 2 40379 99.1112 17.7431 0116804 72.3481 289.0465 15.23134238407407 XW-2A 1 40903U 15049E 22167.04502036 .00021245 00000-0 33599-3 0 9999 2 40903 97.1787 225.5754 0011667 123.5046 320.7167 15.53401565379043 XW-2C 1 40906U 15049H 22167.01013604 .00004726 00000-0 22824-3 0 9991 2 40906 97.4922 170.4336 0014081 12.2889 44.9980 15.19056606372704 XW-2D 1 40907U 15049J 22167.03735244 .00005517 00000-0 26103-3 0 9998 2 40907 97.4905 170.4402 0013275 8.5003 67.4984 15.19702872372752 LILACSAT-2 1 40908U 15049K 22167.03593089 .00002626 00000-0 14069-3 0 9994 2 40908 97.5153 167.6327 0016147 27.8434 48.7212 15.15782266372270 XW-2E 1 40909U 15049L 22167.01834132 .00008586 00000-0 36210-3 0 9993 2 40909 97.4644 174.9426 0011464 350.9792 64.9740 15.23493141373198 XW-2F 1 40910U 15049M 22167.01122058 .00008558 00000-0 36646-3 0 9994 2 40910 97.4720 174.0694 0012606 350.6171 64.8888 15.22967357372960 XW-2B 1 40911U 15049N 22166.99217087 .00005571 00000-0 26436-3 0 9996 2 40911 97.4900 170.9975 0013429 9.5528 42.7356 15.19591306372630 DCBB 1 40912U 15049P 22167.01735781 .00009772 00000-0 38153-3 0 9993 2 40912 97.4361 178.4247 0010881 312.7660 99.6535 15.26051871373538 TW-1A 1 40928U 15051D 22167.01062214 .00042124 00000-0 52781-3 0 9998 2 40928 97.0379 189.6738 0007971 52.7419 38.3531 15.59620448378010 IO-86 1 40931U 15052B 22167.03258167 .00000783 00000-0 19878-4 0 9995 2 40931 6.0005 179.2154 0012434 149.6635 210.4436 14.76815466363131 AO-85 1 40967U 15058D 22166.35294642 .00000769 00000-0 96537-4 0 3964 2 40967 64.7733 78.4383 0195476 201.1350 158.1639 14.77407339 60357 ATHENOXAT-1 1 41168U 15077C 22166.97518096 .00010751 00000-0 43712-3 0 9996 2 41168 14.9897 101.3873 0009636 223.4620 207.0771 15.20935404360080 ChubuSat-2 1 41338U 16012B 22167.00331413 .00002360 00000-0 17199-3 0 9993 2 41338 31.0038 33.1294 0013209 138.6211 221.5427 15.01377674347261 ChubuSat-3 1 41339U 16012C 22166.99619766 .00001588 00000-0 11338-3 0 9991 2 41339 31.0118 30.1063 0012717 144.9295 215.2207 15.01452823347263 Horyu-4 1 41340U 16012D 22166.84507903 .00004182 00000-0 29419-3 0 9998 2 41340 31.0058 9.3990 0013133 185.0140 175.0366 15.03313176347485 e-st@r-II 1 41459U 16025D 22166.90195557 .00007617 00000-0 33377-3 0 9992 2 41459 98.1852 331.9398 0144208 274.5040 83.9759 15.13380457337264 AAUSAT4 1 41460U 16025E 22167.02514236 .00015076 00000-0 58323-3 0 9993 2 41460 98.1799 338.2588 0125386 250.1130 108.6569 15.19223056337725 LO-87 1 41557U 16033B 22167.02659243 .00011190 00000-0 33490-3 0 9998 2 41557 97.3887 264.7202 0010973 32.6250 140.5694 15.34650750337162 NuSat2 1 41558U 16033C 22166.97986579 .00010376 00000-0 29248-3 0 9998 2 41558 97.4077 270.3660 0010213 20.5601 92.4204 15.36564127337424 Lapan A3 1 41603U 16040E 22166.92386299 .00001150 00000-0 55233-4 0 9999 2 41603 97.2060 204.0187 0013747 159.1475 300.8768 15.20665107331806 Pratham 1 41783U 16059A 22167.05978009 .00000547 00000-0 11395-3 0 9998 2 41783 97.9132 208.6710 0033564 175.9279 184.2203 14.63356021305426 TY-1 1 41844U 16066D 22167.04617375 .00010983 00000-0 37517-3 0 9998 2 41844 97.3883 179.0548 0010772 297.4886 127.8929 15.30418908311390 CAS-2T 1 41847U 16066G 22167.02122556 .00000932 00000-0 15027-3 0 9996 2 41847 98.5510 231.6942 0363212 214.0122 143.7301 14.38580230294143 EO-88 1 42017U 17008BX 22166.15183880 .00015778 00000-0 47328-3 0 9996 2 42017 97.2691 232.2985 0003756 235.3503 124.7387 15.34544670296720 CAS-4B 1 42759U 17034B 22166.77983808 .00003195 00000-0 19608-3 0 9994 2 42759 43.0186 341.9280 0010444 279.4551 96.2920 15.11887601276106 CAS-4A 1 42761U 17034D 22166.74943593 .00002994 00000-0 18410-3 0 9997 2 42761 43.0192 340.8830 0010793 281.9233 92.7680 15.11977663276109 NIUSat 1 42766U 17036B 22167.01878861 .00011024 00000-0 42596-3 0 9996 2 42766 97.2009 204.8911 0012465 339.7892 20.2852 15.26337674276589 Aalto 1 1 42775U 17036L 22166.99032187 .00008950 00000-0 35416-3 0 9992 2 42775 97.1968 204.7902 0011430 339.9185 20.1602 15.25611080276553 URSA MAIOR 1 42776U 17036M 22167.03736417 .00010021 00000-0 38971-3 0 9997 2 42776 97.1980 205.5615 0011055 338.6170 21.4606 15.26163196276594 Max Valier Sat 1 42778U 17036P 22167.01287738 .00011354 00000-0 43062-3 0 9991 2 42778 97.2045 208.1633 0009658 341.2505 18.8378 15.26978304276687 Pegasus 1 42784U 17036V 22167.00215795 .00015265 00000-0 54593-3 0 9997 2 42784 97.1981 208.9806 0008977 342.2340 17.8585 15.28852355276793 NUDATSat 1 42787U 17036Y 22167.05913596 .00017646 00000-0 54476-3 0 9994 2 42787 97.2031 213.1184 0007004 329.3429 30.7407 15.33589069276886 SUCHAI 1 1 42788U 17036Z 22166.08456977 .00015154 00000-0 51408-3 0 9996 2 42788 97.1992 209.7165 0008070 340.9067 19.1870 15.30584303276825 SKCUBE 1 42789U 17036AA 22167.06116252 .00016642 00000-0 57662-3 0 9996 2 42789 97.1989 210.1339 0008107 338.3256 21.7640 15.29875142276863 VZLUSAT 1 1 42790U 17036AB 22166.87074518 .00024844 00000-0 76840-3 0 9996 2 42790 97.2016 212.9030 0006542 329.6981 30.3883 15.33464178277004 VENTA 1 1 42791U 17036AC 22167.02774088 .00013662 00000-0 48232-3 0 9994 2 42791 97.1989 209.9914 0007951 339.9075 20.1852 15.29307765276840 Robusta 1B 1 42792U 17036AD 22166.36345273 .00012751 00000-0 43620-3 0 9995 2 42792 97.1987 210.0173 0007715 341.6463 18.4498 15.30352623276805 D-SAT 1 42794U 17036AF 22167.00651721 .00003331 00000-0 28287-3 0 9993 2 42794 97.4502 172.4938 0124855 90.0886 271.4641 14.92620153271261 TechnoSat 1 42829U 17042E 22167.01033723 .00001668 00000-0 17002-3 0 9990 2 42829 97.4212 21.2334 0014477 18.7502 341.4248 14.91861930267871 QIKCOM-1 1 42983U 98067NF 22166.99339637 .00207927 28759-4 44207-3 0 9994 2 42983 51.6263 189.2625 0006510 3.9373 356.1686 15.98239611264700 AO-91 1 43017U 17073E 22166.95325492 .00003315 00000-0 25281-3 0 9992 2 43017 97.6757 61.2089 0248312 192.4286 167.0733 14.81384247246894 PICSAT 1 43132U 18004X 22166.79450280 .00015887 00000-0 52587-3 0 9997 2 43132 97.3722 243.1804 0007258 17.5556 342.5935 15.31379172246156 AO-92 1 43137U 18004AC 22166.85234465 .00012021 00000-0 42418-3 0 9993 2 43137 97.3687 242.0225 0007636 20.7524 339.4025 15.29362597246107 TianYi 2 1 43155U 18008A 22167.04676306 .00006103 00000-0 32617-3 0 9997 2 43155 97.3520 225.4885 0017557 145.5037 306.7071 15.15312293243061 Zhou Enlai 1 43156U 18008B 22167.06103302 .00006372 00000-0 34286-3 0 9993 2 43156 97.3570 225.3775 0014842 144.9627 302.5545 15.15092906242993 TianYi 6 1 43158U 18008D 22166.98325556 .00005228 00000-0 29040-3 0 9993 2 43158 97.3523 223.2846 0013651 144.5136 336.4150 15.14057177242883 S-Net D 1 43186U 18014G 22166.49124505 .00002660 00000-0 23059-3 0 9999 2 43186 97.6594 72.2685 0009052 312.7483 47.2977 14.97908124238620 S-Net B 1 43187U 18014H 22166.55817506 .00002648 00000-0 22957-3 0 9999 2 43187 97.6590 72.2859 0009052 312.4668 47.5788 14.97906949238639 S-Net A 1 43188U 18014J 22166.95926213 .00003138 00000-0 27113-3 0 9994 2 43188 97.6598 72.7426 0008945 311.4724 48.5729 14.97909081238697 S-Net C 1 43189U 18014K 22166.29194856 .00002526 00000-0 21926-3 0 9998 2 43189 97.6591 72.0135 0009078 313.6113 46.4355 14.97902675237148 FMN 1 1 43192U 18015A 22166.93906818 .00024113 00000-0 63977-3 0 9991 2 43192 97.5341 312.0056 0010373 42.8914 75.1957 15.38249845243214 Shaonian Xing 1 43199U 18015H 22166.94374622 .00014704 00000-0 44481-3 0 9995 2 43199 97.5120 307.2309 0013536 52.5724 66.4161 15.34214539243212 SurfSat 1 43614U 18070B 22166.97076349 .00053701 00000-0 79252-3 0 9990 2 43614 93.0316 98.1207 0012855 42.5177 317.7079 15.55093085210835 CP-7 DAVE 1 43615U 18070C 22166.52760347 .00041091 00000-0 63530-3 0 9991 2 43615 93.0316 97.7874 0013340 44.2249 316.0077 15.53850752210739 ELFIN-B 1 43616U 18070D 22166.97941007 .00120257 00000-0 11165-2 0 9993 2 43616 93.0214 99.1498 0009971 46.7238 313.4861 15.67016019211126 ELFIN-A 1 43617U 18070E 22167.04890717 .00132666 00000-0 11224-2 0 9997 2 43617 93.0279 100.5257 0008758 47.7211 312.4800 15.69283173211189 CubeBel-1 1 43666U 18083E 22166.88558918 .00008157 00000-0 34702-3 0 9994 2 43666 97.4194 195.5869 0012141 347.2889 115.9395 15.23204155201244 Changshagaoxin 1 43669U 18083H 22167.04813484 .00007648 00000-0 34112-3 0 9997 2 43669 97.4133 191.7282 0009165 347.4339 39.7701 15.21641683201097 Ten-Koh 1 43677U 18084G 22166.93612523 .00001344 00000-0 14134-3 0 9994 2 43677 97.9640 296.9722 0014402 276.8792 83.0787 14.91094606197452 PO-101 1 43678U 18084H 22166.97422240 .00000215 00000-0 26932-4 0 9990 2 43678 97.9697 300.2218 0008649 294.4392 65.5926 14.92163197197635 IRVINE 01 1 43693U 18088D 22166.83905671 .00052008 00000-0 13954-2 0 9995 2 43693 85.0289 311.9410 0013636 117.6858 242.5777 15.37654837199971 QO-100 1 43700U 18090A 22167.00376461 .00000145 00000-0 00000-0 0 9997 2 43700 0.0160 326.0089 0001441 137.6503 187.7612 1.00273226 13016 Reaktor Hello World 1 43743U 18096AA 22167.03020260 .00017088 00000-0 52017-3 0 9998 2 43743 97.3530 246.9017 0016214 68.9201 291.3774 15.33938189197740 MinXSS-2 1 43758U 18099A 22166.97867311 .00003518 00000-0 30735-3 0 9991 2 43758 97.6234 234.9316 0013911 269.2932 90.6697 14.97352385192888 AO-95 1 43770U 18099N 22166.91862485 .00003189 00000-0 28588-3 0 9993 2 43770 97.6199 233.3084 0012607 280.7990 79.1813 14.96425969192789 RANGE-B 1 43772U 18099Q 22166.91372500 .00003812 00000-0 33537-3 0 9992 2 43772 97.6308 234.9741 0012513 265.8474 94.1318 14.97047482192808 RANGE-A 1 43773U 18099R 22166.90714924 .00001808 00000-0 16593-3 0 9998 2 43773 97.6130 232.1825 0011843 267.5201 92.4665 14.96023926192764 MOVE-II 1 43780U 18099Y 22166.94638755 .00006003 00000-0 51636-3 0 9996 2 43780 97.6256 234.4524 0010741 275.7817 84.2180 14.97713779192834 SNUSat 2 1 43782U 18099AA 22166.89898129 .00002027 00000-0 18285-3 0 9990 2 43782 97.6211 233.7512 0010963 266.0746 93.9223 14.96597413192802 SnugLite 1 43784U 18099AC 22166.46888859 .00003748 00000-0 33177-3 0 9992 2 43784 97.6174 232.9735 0012739 275.0638 84.9130 14.96806536192764 ITASat 1 1 43786U 18099AE 22166.44401619 .00001909 00000-0 17252-3 0 9990 2 43786 97.6232 233.7638 0013470 275.2674 84.7011 14.96571158192751 EAGLET 1 1 43790U 18099AJ 22167.00802109 .00002500 00000-0 22336-3 0 9994 2 43790 97.6231 234.8450 0011266 277.1714 82.8227 14.96757776192576 ESEO 1 43792U 18099AL 22166.94206203 .00001443 00000-0 13292-3 0 9997 2 43792 97.6185 234.0020 0011412 275.0926 84.8993 14.96191885192605 CSIM 1 43793U 18099AM 22166.98730068 .00005355 00000-0 45327-3 0 9993 2 43793 97.6236 235.3797 0011216 263.5936 96.4009 14.98381026192666 Astrocast 0.1 1 43798U 18099AS 22166.92974051 .00004559 00000-0 39451-3 0 9990 2 43798 97.6231 235.2234 0010595 248.4810 111.5283 14.97607536192886 JO-97 1 43803U 18099AX 22166.93035757 .00003951 00000-0 34716-3 0 9993 2 43803 97.6192 233.9918 0012862 271.4097 88.5652 14.97067110192842 Suomi 100 1 43804U 18099AY 22166.14593547 .00003043 00000-0 26925-3 0 9998 2 43804 97.6200 233.1504 0012820 275.8229 84.1532 14.96972623192735 Al Farabi 2 1 43805U 18099AZ 22167.00261977 .00003808 00000-0 33084-3 0 9997 2 43805 97.6206 234.4657 0012740 268.9782 91.0017 14.97528695192881 CHOMPTT 1 43855U 18104G 22166.93598990 .00009632 00000-0 35510-3 0 9995 2 43855 85.0365 52.1640 0013095 239.1930 120.8027 15.27568380194499 ISAT 1 43879U 18111D 22166.99451480 .00003815 00000-0 32772-3 0 9991 2 43879 97.6651 72.6321 0012071 329.8564 30.1962 14.97987911189450 UWE-4 1 43880U 18111E 22166.99799532 .00003679 00000-0 31500-3 0 9992 2 43880 97.6678 73.3348 0011290 330.5364 29.5221 14.98145803189487 Sparrow 1 43881U 18111F 22167.01547044 .00004427 00000-0 37652-3 0 9992 2 43881 97.6695 73.5763 0010672 330.9479 29.1148 14.98295471189496 Lume 1 1 43908U 18111AJ 22166.94124743 .00013318 00000-0 45302-3 0 9990 2 43908 97.1919 54.7966 0020645 80.7714 279.5862 15.30346476193161 FO-99 1 43937U 19003F 22167.05793295 .00016646 00000-0 55980-3 0 9990 2 43937 97.1293 200.4631 0021866 154.4081 205.8248 15.30640785189760 MYSat 1 1 44045U 18092F 22167.05072297 .00059410 00000-0 88215-3 0 9993 2 44045 51.6324 79.6868 0010615 96.9197 263.3002 15.54557735187658 AstroCast 0.2 1 44083U 19018F 22166.92375372 .00021025 00000-0 80208-3 0 9994 2 44083 97.3216 225.8163 0012487 129.5555 230.6790 15.26620643178255 AISTechSat 3 1 44103U 19018AB 22166.39266095 .00009576 00000-0 35768-3 0 9997 2 44103 97.3083 225.6805 0013576 138.3052 221.9224 15.27491677178339 AISat 1 1 44104U 19018AC 22166.47561566 .00009958 00000-0 27858-3 0 9993 2 44104 97.3965 249.6019 0053556 139.3483 221.1778 15.35392702179293 Prox-1 1 44339U 19036A 22166.75039269 .00003408 00000-0 72701-3 0 9995 2 44339 23.9989 204.2339 0010402 193.8454 166.1753 14.55046242158106 Oculus-ASR 1 44348U 19036K 22166.77378885 .00067713 -55029-5 64482-3 0 9990 2 44348 28.5027 203.8366 0240515 292.4749 65.0549 15.36490227164280 Armadillo 1 44352U 19036P 22166.97749002 .00214559 64962-5 98713-3 0 9991 2 44352 28.5205 126.2172 0127647 55.6416 305.6194 15.70919719165028 NO-104 1 44354U 19036R 22166.45629234 .00078384 -51091-5 70758-3 0 9993 2 44354 28.5244 192.2109 0230998 307.9923 50.0022 15.39448077164362 Move-IIb 1 44398U 19038N 22167.10624491 .00009945 00000-0 48205-3 0 9993 2 44398 97.6309 136.4427 0023398 128.4436 231.8907 15.18488359162836 SONATE 1 44400U 19038Q 22167.00345673 .00003900 00000-0 21340-3 0 9994 2 44400 97.6398 135.5005 0024688 134.3299 225.9969 15.14604987162718 BeeSat 9 1 44412U 19038AC 22166.73598105 .00010013 00000-0 50969-3 0 9998 2 44412 97.6353 136.0091 0021752 136.2589 224.0371 15.16808250162432 JAISAT-1 1 44419U 19038F 22166.92010154 .00010668 00000-0 53559-3 0 9993 2 44419 97.6358 137.0308 0020864 132.7841 227.5151 15.17290614162828 LightSail-2 1 44420U 19036AC 22167.03150817 .00100942 00000-0 13061-1 0 9994 2 44420 24.0017 141.2956 0008361 279.6923 80.2629 14.79254213156876 Taurus 1 1 44530U 19059C 22166.90033153 .00001640 00000-0 46211-3 0 9999 2 44530 98.5468 265.3955 0015136 122.9758 237.2916 14.47063377145623 Duchifat 3 1 44854U 19089C 22166.99224280 .00002581 00000-0 20404-3 0 9994 2 44854 36.9641 109.0076 0008389 220.3856 224.1069 15.01058695137716 OPS-SAT 1 44878U 19092F 22166.94430549 .00010701 00000-0 49851-3 0 9996 2 44878 97.4794 350.9069 0011825 352.3931 7.7122 15.20022673137961 TO-108 1 44881U 19093C 22166.89031541 .00000420 00000-0 59937-4 0 9998 2 44881 97.8925 246.1216 0014713 186.0780 174.0242 14.81724652134542 FloripaSat 1 1 44885U 19093G 22166.86050059 .00001413 00000-0 17961-3 0 9997 2 44885 97.8964 247.3671 0014215 192.1706 167.9186 14.83129561134616 RS-44 1 44909U 19096E 22166.93988236 .00000041 00000-0 12537-3 0 9992 2 44909 82.5220 231.2804 0216609 323.5316 35.1193 12.79713425115318 Phoenix 1 45258U 98067RB 22163.82960323 .11428466 12633-4 25365-3 0 9996 2 45258 51.6194 294.3376 0009579 296.6520 63.3527 16.45855778131755 BY70-2 1 45857U 20042B 22166.93875755 .00005442 00000-0 72901-3 0 9990 2 45857 97.9545 243.7922 0012531 120.2629 239.9973 14.79770649105230 UPMSat 2 1 46276U 20061E 22166.46164507 .00004710 00000-0 23376-3 0 9990 2 46276 97.3917 237.3302 0002427 134.7738 225.3694 15.18171999 98572 AmicalSat 1 46287U 20061R 22166.89174719 .00006435 00000-0 37145-3 0 9990 2 46287 97.4460 236.6677 0000903 285.2566 74.8565 15.12670236 98232 SALSAT 1 46495U 20068K 22166.83298404 .00002509 00000-0 18327-3 0 9999 2 46495 97.7306 108.1325 0014699 285.0246 74.9353 15.04511413 93949 BY70-3 1 46839U 20079N 22167.07337118 .00019655 00000-0 46388-3 0 9994 2 46839 97.1982 239.1832 0004056 354.2257 68.7012 15.41903451 90038 SPOC 1 46921U 98067RR 22166.28746850 .00650122 21535-3 92570-3 0 9990 2 46921 51.6235 298.2466 0011805 312.5134 47.4880 16.04824622 91676 Neutron-1 1 46923U 98067RT 22166.64631322 .00731215 27481-3 10399-2 0 9996 2 46923 51.6240 296.9067 0011704 312.8400 47.1627 16.04853128 91751 CAPE 3 1 47309U 21002A 22166.97346633 .00012015 00000-0 48933-3 0 9995 2 47309 60.6840 10.1218 0019903 332.3901 27.6128 15.24735266 78221 AO-109 1 47311U 21002C 22166.96080820 .00010541 00000-0 42478-3 0 9990 2 47311 60.6863 7.8658 0015704 334.9080 25.1244 15.25271095 78230 MiTEE 1 1 47314U 21002F 22167.01804127 .00022149 00000-0 76038-3 0 9990 2 47314 60.6832 1.1462 0013022 320.8271 39.1876 15.30085656 78379 ExoCube 2 1 47319U 21002L 22166.95908397 .00010199 00000-0 41642-3 0 9996 2 47319 60.6852 8.9285 0017137 336.2912 23.7384 15.24839217 78183 UVSQ-SAT 1 47438U 21006AB 22166.95970074 .00007585 00000-0 40142-3 0 9992 2 47438 97.4369 226.0003 0010131 280.4411 79.5679 15.15676079 77054 YUSAT 1 1 47439U 21006AC 22166.93033435 .00008834 00000-0 46132-3 0 9995 2 47439 97.4373 226.0655 0009935 280.1248 79.8864 15.16101056 77056 SOMP 2b 1 47445U 21006AJ 22166.89160331 .00006569 00000-0 35132-3 0 9994 2 47445 97.4343 225.6014 0009812 285.7805 74.2346 15.15359072 77032 IDEASSat 1 47458U 21006AX 22166.41110220 .00005329 00000-0 28711-3 0 9996 2 47458 97.4431 225.6256 0008959 285.8140 74.2104 15.15189787 76952 Tsuru 1 47927U 98067SD 22166.46831643 .00413282 78863-4 10571-2 0 9993 2 47927 51.6302 311.5557 0010128 299.1468 60.8525 15.94675841 71482 Maya-2 1 47929U 98067SF 22166.66719142 .00395003 72317-4 10447-2 0 9996 2 47929 51.6291 310.6341 0009732 299.1594 60.8439 15.94064797 71476 GuaraniSat-1 1 47931U 98067SH 22166.51496555 .00417722 80548-4 10580-2 0 9999 2 47931 51.6276 311.1252 0010011 300.5712 59.4308 15.94859474 71495 CubeSX-Sirius-HSE 1 47951U 21022V 22167.04629279 .00002885 00000-0 19349-3 0 9992 2 47951 97.5318 66.5973 0021986 146.1015 337.6984 15.07439626 67782 CubeSX-HSE 1 47952U 21022W 22166.90294351 .00002634 00000-0 17680-3 0 9994 2 47952 97.5308 66.4750 0021767 146.4286 348.5333 15.07490424 67764 KSU-Cubesat 1 47954U 21022Y 22166.97543898 .00005405 00000-0 35602-3 0 9999 2 47954 97.5320 66.6456 0021718 145.5570 214.7071 15.07736858 67506 GRBAlpha 1 47959U 21022AD 22167.03245825 .00002739 00000-0 18358-3 0 9997 2 47959 97.5316 66.6386 0021616 146.5307 340.8229 15.07513613 66602 Orbicraft-Zorkiy 1 47960U 21022AE 22167.07072854 .00004133 00000-0 27382-3 0 9990 2 47960 97.5345 66.8069 0021323 146.1186 324.9178 15.07668963 67305 STECCO 1 47962U 21022AG 22166.88218561 .00004927 00000-0 30944-3 0 9996 2 47962 97.5299 67.2871 0016901 139.7170 278.9995 15.09606655 66630 DO-111 1 47963U 21022AH 22166.49500618 .00017748 00000-0 99221-3 0 9999 2 47963 97.5329 67.8773 0018607 133.4091 226.8693 15.13394752 66656 MO-110 1 47964U 21022AJ 22166.98254414 .00009118 00000-0 56232-3 0 9991 2 47964 97.5315 67.6371 0019908 136.3433 223.9375 15.09995427 66668 FEES 1 48082U 21022AL 22166.45085638 .00010920 00000-0 66457-3 0 9998 2 48082 97.5326 67.0252 0016231 133.6015 226.6564 15.10483317 66286 RamSat 1 48850U 98067SL 22166.56293064 .00082113 00000-0 66337-3 0 9990 2 48850 51.6371 327.3007 0000591 326.7326 33.3634 15.70124717 57038 TUBIN 1 48900U 21059X 22167.05707422 .00003132 00000-0 17644-3 0 9997 2 48900 97.5534 296.3667 0011529 107.0238 9.6521 15.13903684 53702 IT-SPINS 1 49017U 21013G 22166.94731149 .00013057 00000-0 50397-3 0 9996 2 49017 51.5973 46.9037 0009000 76.0165 284.1814 15.26566118 53553 LEDSAT 1 49069U 21073D 22166.85754130 .00004365 00000-0 28057-3 0 9994 2 49069 97.5246 239.7781 0025447 301.6342 58.2404 15.08679033 45599 CUTE 1 49263U 21088D 22166.93105010 .00005629 00000-0 41964-3 0 9998 2 49263 97.5893 234.8792 0021215 71.5682 288.7847 15.03100328 39191 Binar-1 1 49272U 98067SR 22166.19647823 .00089270 00000-0 72822-3 0 9991 2 49272 51.6354 333.0759 0004872 278.5339 81.5106 15.69844134 39310 Maya-3 1 49273U 98067SS 22166.73482149 .00201963 00000-0 10594-2 0 9992 2 49273 51.6315 326.1359 0007419 284.8319 75.1860 15.79606135 39454 Maya-4 1 49274U 98067ST 22166.56905017 .00189622 00000-0 10320-2 0 9992 2 49274 51.6348 327.2826 0006907 280.8062 79.2161 15.78833588 39423 CUAVA-1 1 49275U 98067SU 22166.52655370 .00105149 00000-0 70381-3 0 9999 2 49275 51.6347 329.0291 0005535 289.1920 178.3218 15.74444492 39343 TeikyoSat 4 1 49396U 21102B 22166.89085172 .00001128 00000-0 93699-4 0 9996 2 49396 97.5254 225.0089 0013676 269.1107 90.8550 15.00612676 32815 Z-Sat 1 49399U 21102E 22167.03255426 .00002051 00000-0 15792-3 0 9990 2 49399 97.5391 225.8549 0022146 230.5221 129.4045 15.02569059 32872 KOSEN 1 1 49402U 21102H 22166.89616704 .00002577 00000-0 19203-3 0 9992 2 49402 97.5312 225.8405 0021193 222.2447 137.7147 15.03608365 32870 HO-113 1 50466U 21131B 22166.98965298 .00000212 00000-0 84098-4 0 9990 2 50466 98.5805 244.2442 0005540 142.7720 217.3852 14.38499865 24705 Tevel 1 50999U 22002R 22166.94877701 .00006209 00000-0 33677-3 0 9994 2 50999 97.4803 234.0407 0012650 69.6041 104.9470 15.14854524 23194 Grizu-263a 1 51025U 22002AT 22166.16352530 .00012845 00000-0 65698-3 0 9998 2 51025 97.4978 233.8325 0014153 77.5324 282.7491 15.16689222 23096 NO-116 1 51031U 22002AZ 22166.98933092 .00013067 00000-0 68463-3 0 9993 2 51031 97.4931 234.4785 0014416 73.5983 286.6833 15.15832524 23219 IRIS-A 1 51044U 22002BN 22166.15461437 .00004383 00000-0 24861-3 0 9990 2 51044 97.4821 233.0752 0010779 77.1294 283.1141 15.13433131 23069 DELFI-PQ 1 51074U 22002CU 22166.91620328 .00014691 00000-0 73656-3 0 9992 2 51074 97.5060 234.9833 0015492 101.1377 259.1599 15.17341032 23225 SO-115 1 51080U 22002DA 22165.63346436 .00008522 00000-0 43926-3 0 9995 2 51080 97.5075 233.6540 0015282 104.7444 255.5484 15.16516175 23022 SO-114 1 51081U 22002DB 22166.42581871 .00008155 00000-0 42031-3 0 9996 2 51081 97.5063 234.4209 0015623 102.1972 258.1011 15.16530117 23148 OreSat0 1 52017U 22026K 22166.97390923 .00007887 00000-0 42226-3 0 9995 2 52017 97.5011 166.8387 0025246 280.0203 79.8180 15.15027354 13968 Planetum 1 1 52738U 22057G 22166.99563040 .00007572 00000-0 44547-3 0 9992 2 52738 97.5129 281.6735 0008932 168.2086 191.9355 15.11899525 3210 Foresail-1 1 52766U 22057AL 22166.97659289 .00005434 00000-0 30861-3 0 9991 2 52766 97.5227 281.7276 0014670 153.5359 206.6624 15.13243146 3214 /EX
